Dades meteomassalio
Diari Summary for Gener 2, 2017 Units:  Metric    English   Both
« Previous Day
Next Day »
Diari Semanal Mensual Anual Personalitzat
  Maxima: Minima: Mijana:
Temperatura: 1.1 °C -0.6 °C 0.3 °C
Rosada: 0.6 °C -1.2 °C -0.3 °C
Humitat: 96 % 95 % 96 %
Velocitat del vent: 0.0 km/h 0.0 km/h 0 km/h
Racha vent: 0.0 km/h - -
Vent:- - North
Pressio: 1027.7 hPa 1025.6 hPa -
Pluja: 0.3 mm    
Historical Graphs
 
 
Tabular Data for Gener 2, 2017
Time Temperature Dew Point Pressure Wind Wind Speed Wind Gust Humidity Rainfall Rate (Hourly) solar Conditions
00:04 0.3 °C -0.4 °C 1027.0 hPa Calm     95 % 0.0 mm 0.0 W/m2 RA
00:09 0.3 °C -0.4 °C 1026.6 hPa Calm     95 % 0.0 mm 0.0 W/m2 CLR
00:14 0.4 °C -0.2 °C 1026.6 hPa Calm     96 % 0.0 mm 0.0 W/m2 CLR
00:19 0.4 °C -0.2 °C 1026.6 hPa Calm     96 % 0.0 mm 0.0 W/m2 CLR
00:24 0.4 °C -0.2 °C 1026.6 hPa Calm     96 % 0.0 mm 0.0 W/m2 CLR
00:29 0.4 °C -0.2 °C 1026.6 hPa Calm     96 % 0.0 mm 0.0 W/m2 CLR
00:34 0.4 °C -0.2 °C 1026.6 hPa Calm     96 % 0.0 mm 0.0 W/m2 CLR
00:39 0.4 °C -0.1 °C 1026.6 hPa Calm     96 % 0.0 mm 0.0 W/m2 CLR
00:44 0.4 °C -0.1 °C 1026.6 hPa Calm     96 % 0.0 mm 0.0 W/m2 CLR
00:49 0.4 °C -0.2 °C 1026.6 hPa Calm     96 % 0.0 mm 0.0 W/m2 CLR
00:54 0.4 °C -0.2 °C 1026.6 hPa Calm     96 % 0.0 mm 0.0 W/m2 CLR
00:59 0.4 °C -0.2 °C 1026.3 hPa Calm     96 % 0.0 mm 0.0 W/m2 CLR
01:04 0.4 °C -0.2 °C 1026.3 hPa Calm     96 % 0.0 mm 0.0 W/m2 CLR
01:09 0.3 °C -0.4 °C 1026.3 hPa Calm     95 % 0.0 mm 0.0 W/m2 CLR
01:14 0.3 °C -0.4 °C 1026.3 hPa Calm     95 % 0.0 mm 0.0 W/m2 CLR
01:19 0.3 °C -0.3 °C 1026.3 hPa Calm     96 % 0.0 mm 0.0 W/m2 CLR
01:24 0.3 °C -0.2 °C 1026.3 hPa Calm     96 % 0.0 mm 0.0 W/m2 CLR
01:29 0.3 °C -0.2 °C 1026.3 hPa Calm     96 % 0.0 mm 0.0 W/m2 CLR
01:34 0.3 °C -0.4 °C 1026.3 hPa Calm     95 % 0.0 mm 0.0 W/m2 CLR
01:40 0.3 °C -0.3 °C 1026.3 hPa Calm     96 % 0.0 mm 0.0 W/m2 CLR
01:45 0.3 °C -0.3 °C 1026.3 hPa Calm     96 % 0.0 mm 0.0 W/m2 CLR
01:50 0.3 °C -0.3 °C 1026.6 hPa Calm     96 % 0.0 mm 0.0 W/m2 CLR
01:55 0.3 °C -0.3 °C 1026.3 hPa Calm     96 % 0.0 mm 0.0 W/m2 CLR
02:00 0.3 °C -0.4 °C 1026.3 hPa Calm     95 % 0.0 mm 0.0 W/m2 CLR
02:05 0.3 °C -0.3 °C 1026.3 hPa Calm     96 % 0.0 mm 0.0 W/m2 CLR
02:10 0.3 °C -0.3 °C 1026.3 hPa Calm     96 % 0.0 mm 0.0 W/m2 CLR
02:15 0.3 °C -0.4 °C 1026.3 hPa Calm     95 % 0.0 mm 0.0 W/m2 CLR
02:20 0.3 °C -0.4 °C 1026.3 hPa Calm     95 % 0.0 mm 0.0 W/m2 CLR
02:25 0.3 °C -0.4 °C 1026.3 hPa Calm     95 % 0.0 mm 0.0 W/m2 CLR
02:30 0.3 °C -0.4 °C 1026.3 hPa Calm     95 % 0.0 mm 0.0 W/m2 CLR
02:35 0.3 °C -0.2 °C 1026.3 hPa Calm     96 % 0.0 mm 0.0 W/m2 CLR
02:40 0.3 °C -0.4 °C 1026.6 hPa Calm     95 % 0.0 mm 0.0 W/m2 CLR
02:45 0.4 °C -0.2 °C 1026.6 hPa Calm     96 % 0.0 mm 0.0 W/m2 CLR
02:50 0.4 °C -0.2 °C 1026.6 hPa Calm     96 % 0.0 mm 0.0 W/m2 CLR
02:55 0.4 °C -0.2 °C 1026.6 hPa Calm     96 % 0.0 mm 0.0 W/m2 CLR
03:00 0.4 °C -0.2 °C 1026.6 hPa Calm     96 % 0.0 mm 0.0 W/m2 CLR
03:05 0.4 °C -0.1 °C 1026.6 hPa Calm     96 % 0.0 mm 0.0 W/m2 CLR
03:10 0.5 °C -0.1 °C 1026.3 hPa Calm     96 % 0.0 mm 0.0 W/m2 CLR
03:15 0.4 °C -0.1 °C 1026.3 hPa Calm     96 % 0.0 mm 0.0 W/m2 CLR
03:20 0.4 °C -0.2 °C 1026.3 hPa Calm     96 % 0.0 mm 0.0 W/m2 CLR
03:25 0.4 °C -0.2 °C 1026.3 hPa Calm     96 % 0.0 mm 0.0 W/m2 CLR
03:30 0.4 °C -0.2 °C 1026.3 hPa Calm     96 % 0.0 mm 0.0 W/m2 CLR
03:35 0.4 °C -0.2 °C 1026.3 hPa Calm     96 % 0.0 mm 0.0 W/m2 CLR
03:40 0.4 °C -0.1 °C 1026.3 hPa Calm     96 % 0.0 mm 0.0 W/m2 CLR
03:45 0.4 °C -0.1 °C 1026.6 hPa Calm     96 % 0.0 mm 0.0 W/m2 CLR
03:50 0.5 °C -0.1 °C 1026.3 hPa Calm     96 % 0.0 mm 0.0 W/m2 CLR
03:55 0.4 °C -0.2 °C 1026.3 hPa Calm     96 % 0.0 mm 0.0 W/m2 CLR
04:00 0.3 °C -0.2 °C 1026.3 hPa Calm     96 % 0.0 mm 0.0 W/m2 CLR
04:05 0.3 °C -0.2 °C 1026.6 hPa Calm     96 % 0.0 mm 0.0 W/m2 CLR
04:10 0.3 °C -0.2 °C 1026.3 hPa Calm     96 % 0.0 mm 0.0 W/m2 CLR
04:15 0.3 °C -0.2 °C 1026.3 hPa Calm     96 % 0.0 mm 0.0 W/m2 CLR
04:20 0.3 °C -0.2 °C 1026.3 hPa Calm     96 % 0.0 mm 0.0 W/m2 CLR
04:25 0.3 °C -0.4 °C 1026.3 hPa Calm     95 % 0.0 mm 0.0 W/m2 CLR
04:30 0.3 °C -0.2 °C 1026.3 hPa Calm     96 % 0.0 mm 0.0 W/m2 CLR
04:35 0.3 °C -0.2 °C 1026.3 hPa Calm     96 % 0.0 mm 0.0 W/m2 CLR
04:40 0.3 °C -0.2 °C 1026.3 hPa Calm     96 % 0.0 mm 0.0 W/m2 CLR
04:45 0.3 °C -0.2 °C 1026.3 hPa Calm     96 % 0.0 mm 0.0 W/m2 CLR
04:50 0.3 °C -0.3 °C 1026.3 hPa Calm     96 % 0.0 mm 0.0 W/m2 CLR
04:55 0.3 °C -0.3 °C 1026.3 hPa Calm     96 % 0.0 mm 0.0 W/m2 CLR
05:00 0.3 °C -0.3 °C 1026.3 hPa Calm     96 % 0.0 mm 0.0 W/m2 CLR
05:05 0.3 °C -0.3 °C 1026.3 hPa Calm     96 % 0.0 mm 0.0 W/m2 CLR
05:10 0.3 °C -0.3 °C 1026.3 hPa Calm     96 % 0.0 mm 0.0 W/m2 CLR
05:15 0.3 °C -0.3 °C 1026.0 hPa Calm     96 % 0.0 mm 0.0 W/m2 CLR
05:20 0.3 °C -0.3 °C 1026.0 hPa Calm     96 % 0.0 mm 0.0 W/m2 CLR
05:25 0.3 °C -0.3 °C 1026.0 hPa Calm     96 % 0.0 mm 0.0 W/m2 CLR
05:30 0.2 °C -0.3 °C 1026.0 hPa Calm     96 % 0.0 mm 0.0 W/m2 CLR
05:35 0.2 °C -0.4 °C 1026.0 hPa Calm     96 % 0.0 mm 0.0 W/m2 CLR
05:40 0.1 °C -0.4 °C 1026.0 hPa Calm     96 % 0.0 mm 0.0 W/m2 CLR
05:45 0.1 °C -0.4 °C 1026.3 hPa Calm     96 % 0.0 mm 0.0 W/m2 CLR
05:50 0.1 °C -0.4 °C 1026.0 hPa Calm     96 % 0.0 mm 0.0 W/m2 CLR
05:55 0.1 °C -0.4 °C 1026.3 hPa Calm     96 % 0.0 mm 0.0 W/m2 CLR
06:00 0.1 °C -0.4 °C 1026.0 hPa Calm     96 % 0.0 mm 0.0 W/m2 CLR
06:05 0.1 °C -0.4 °C 1026.0 hPa Calm     96 % 0.0 mm 0.0 W/m2 CLR
06:10 0.1 °C -0.5 °C 1026.3 hPa Calm     96 % 0.0 mm 0.0 W/m2 CLR
06:15 0.1 °C -0.5 °C 1026.3 hPa Calm     96 % 0.0 mm 0.0 W/m2 CLR
06:20 0.0 °C -0.6 °C 1026.3 hPa Calm     96 % 0.0 mm 0.0 W/m2 CLR
06:30 0.0 °C -0.6 °C 1026.3 hPa Calm     96 % 0.0 mm 0.0 W/m2 CLR
06:35 0.0 °C -0.6 °C 1026.3 hPa Calm     96 % 0.0 mm 0.0 W/m2 CLR
06:40 0.0 °C -0.6 °C 1026.3 hPa Calm     96 % 0.0 mm 0.0 W/m2 CLR
06:45 0.0 °C -0.7 °C 1026.3 hPa Calm     95 % 0.0 mm 0.0 W/m2 CLR
06:50 0.0 °C -0.6 °C 1026.3 hPa Calm     96 % 0.0 mm 0.0 W/m2 CLR
06:55 0.0 °C -0.6 °C 1026.3 hPa Calm     96 % 0.0 mm 0.0 W/m2 CLR
07:00 -0.1 °C -0.6 °C 1026.3 hPa Calm     96 % 0.0 mm 0.0 W/m2 CLR
07:05 -0.1 °C -0.6 °C 1026.3 hPa Calm     96 % 0.0 mm 0.0 W/m2 CLR
07:10 -0.1 °C -0.6 °C 1026.6 hPa Calm     96 % 0.0 mm 0.0 W/m2 CLR
07:15 -0.1 °C -0.6 °C 1026.6 hPa Calm     96 % 0.0 mm 0.0 W/m2 CLR
07:20 -0.1 °C -0.7 °C 1026.6 hPa Calm     96 % 0.0 mm 0.0 W/m2 CLR
07:25 -0.1 °C -0.7 °C 1026.6 hPa Calm     96 % 0.0 mm 0.0 W/m2 CLR
07:30 -0.1 °C -0.6 °C 1026.6 hPa Calm     96 % 0.0 mm 0.0 W/m2 CLR
07:35 -0.1 °C -0.6 °C 1026.6 hPa Calm     96 % 0.0 mm 0.0 W/m2 CLR
07:40 -0.1 °C -0.6 °C 1026.6 hPa Calm     96 % 0.0 mm 0.0 W/m2 CLR
07:45 -0.1 °C -0.6 °C 1026.6 hPa Calm     96 % 0.0 mm 0.0 W/m2 CLR
07:50 -0.2 °C -0.7 °C 1026.6 hPa Calm     96 % 0.0 mm 0.0 W/m2 CLR
07:55 -0.2 °C -0.7 °C 1026.6 hPa Calm     96 % 0.0 mm 0.0 W/m2 CLR
08:00 -0.2 °C -0.8 °C 1026.6 hPa Calm     96 % 0.0 mm 0.0 W/m2 CLR
08:05 -0.2 °C -0.8 °C 1026.6 hPa Calm     96 % 0.0 mm 0.0 W/m2 CLR
08:10 -0.2 °C -0.8 °C 1026.6 hPa Calm     96 % 0.0 mm 0.0 W/m2 CLR
08:15 -0.3 °C -0.8 °C 1026.6 hPa Calm     96 % 0.0 mm 0.0 W/m2 CLR
08:20 -0.3 °C -0.8 °C 1026.6 hPa Calm     96 % 0.0 mm 0.0 W/m2 CLR
08:25 -0.3 °C -0.8 °C 1026.6 hPa Calm     96 % 0.0 mm 0.0 W/m2 OVC
08:31 -0.3 °C -0.8 °C 1026.6 hPa Calm     96 % 0.0 mm 0.0 W/m2 OVC
08:36 -0.4 °C -0.9 °C 1026.6 hPa Calm     96 % 0.0 mm 5.0 W/m2 BKN
08:41 -0.4 °C -1.0 °C 1026.6 hPa Calm     96 % 0.0 mm 5.0 W/m2 OVC
08:46 -0.4 °C -1.0 °C 1026.6 hPa Calm     96 % 0.0 mm 7.0 W/m2 BKN
08:51 -0.5 °C -1.1 °C 1026.6 hPa Calm     96 % 0.0 mm 7.0 W/m2 BKN
08:56 -0.4 °C -1.0 °C 1027.0 hPa Calm     96 % 0.0 mm 9.0 W/m2 BKN
09:01 -0.5 °C -1.1 °C 1026.6 hPa Calm     96 % 0.0 mm 12.0 W/m2 BKN
09:06 -0.5 °C -1.1 °C 1026.6 hPa Calm     96 % 0.0 mm 12.0 W/m2 BKN
09:11 -0.6 °C -1.1 °C 1026.6 hPa Calm     96 % 0.0 mm 16.0 W/m2 BKN
09:16 -0.6 °C -1.2 °C 1026.6 hPa Calm     96 % 0.0 mm 21.0 W/m2 BKN
09:21 -0.6 °C -1.2 °C 1027.0 hPa Calm     96 % 0.0 mm 25.0 W/m2 BKN
09:26 -0.6 °C -1.2 °C 1027.0 hPa Calm     96 % 0.0 mm 21.0 W/m2 BKN
09:31 -0.6 °C -1.1 °C 1027.0 hPa Calm     96 % 0.0 mm 25.0 W/m2 BKN
09:36 -0.5 °C -1.1 °C 1027.0 hPa Calm     96 % 0.0 mm 30.0 W/m2 BKN
09:41 -0.5 °C -1.1 °C 1027.0 hPa Calm     96 % 0.0 mm 28.0 W/m2 BKN
09:46 -0.5 °C -1.1 °C 1027.0 hPa Calm     96 % 0.0 mm 30.0 W/m2 BKN
09:51 -0.5 °C -1.1 °C 1027.0 hPa Calm     96 % 0.0 mm 37.0 W/m2 BKN
09:56 -0.5 °C -1.1 °C 1027.0 hPa Calm     96 % 0.0 mm 42.0 W/m2 BKN
10:01 -0.4 °C -1.0 °C 1027.3 hPa Calm     96 % 0.0 mm 37.0 W/m2 BKN
10:06 -0.4 °C -1.0 °C 1027.3 hPa Calm     96 % 0.0 mm 49.0 W/m2 BKN
10:11 -0.4 °C -0.9 °C 1027.3 hPa Calm     96 % 0.0 mm 46.0 W/m2 BKN
10:16 -0.4 °C -0.9 °C 1027.3 hPa Calm     96 % 0.0 mm 49.0 W/m2 BKN
10:21 -0.3 °C -0.9 °C 1027.3 hPa Calm     96 % 0.0 mm 49.0 W/m2 BKN
10:26 -0.3 °C -0.9 °C 1027.3 hPa Calm     96 % 0.0 mm 51.0 W/m2 BKN
10:31 -0.3 °C -0.8 °C 1027.3 hPa Calm     96 % 0.0 mm 58.0 W/m2 BKN
10:36 -0.3 °C -0.8 °C 1027.3 hPa Calm     96 % 0.0 mm 62.0 W/m2 BKN
10:41 -0.3 °C -0.8 °C 1027.7 hPa Calm     96 % 0.0 mm 58.0 W/m2 BKN
10:46 -0.3 °C -0.8 °C 1027.3 hPa Calm     96 % 0.0 mm 60.0 W/m2 BKN
10:51 -0.3 °C -0.8 °C 1027.3 hPa Calm     96 % 0.0 mm 65.0 W/m2 BKN
10:56 -0.2 °C -0.8 °C 1027.7 hPa Calm     96 % 0.0 mm 65.0 W/m2 BKN
11:01 -0.2 °C -0.8 °C 1027.7 hPa Calm     96 % 0.0 mm 74.0 W/m2 BKN
11:06 -0.2 °C -0.7 °C 1027.7 hPa Calm     96 % 0.0 mm 76.0 W/m2 BKN
11:11 -0.2 °C -0.7 °C 1027.7 hPa Calm     96 % 0.0 mm 83.0 W/m2 BKN
11:16 -0.1 °C -0.6 °C 1027.7 hPa Calm     96 % 0.0 mm 76.0 W/m2 BKN
11:21 0.0 °C -0.6 °C 1027.7 hPa Calm     96 % 0.0 mm 83.0 W/m2 BKN
11:26 0.1 °C -0.5 °C 1027.7 hPa Calm     96 % 0.0 mm 86.0 W/m2 BKN
11:31 0.1 °C -0.4 °C 1027.7 hPa Calm     96 % 0.0 mm 86.0 W/m2 BKN
11:36 0.2 °C -0.4 °C 1027.7 hPa Calm     96 % 0.0 mm 84.0 W/m2 BKN
11:41 0.2 °C -0.3 °C 1027.7 hPa Calm     96 % 0.0 mm 72.0 W/m2 BKN
11:46 0.2 °C -0.3 °C 1027.7 hPa Calm     96 % 0.0 mm 70.0 W/m2 BKN
11:51 0.3 °C -0.3 °C 1027.7 hPa Calm     96 % 0.3 mm 70.0 W/m2 RA
11:56 0.3 °C -0.3 °C 1027.7 hPa Calm     96 % 0.3 mm 69.0 W/m2 BKN
12:01 0.3 °C -0.2 °C 1027.7 hPa Calm     96 % 0.3 mm 79.0 W/m2 BKN
12:06 0.3 °C -0.2 °C 1027.7 hPa Calm     96 % 0.3 mm 91.0 W/m2 BKN
12:07 0.3 °C -0.2 °C 1027.7 hPa Calm     96 % 0.3 mm 91.0 W/m2 BKN
12:12 0.3 °C -0.2 °C 1027.3 hPa Calm     96 % 0.3 mm 100.0 W/m2 BKN
12:17 0.4 °C -0.2 °C 1027.3 hPa Calm     96 % 0.3 mm 114.0 W/m2 BKN
12:22 0.4 °C -0.2 °C 1027.3 hPa Calm     96 % 0.3 mm 97.0 W/m2 BKN
12:27 0.4 °C -0.2 °C 1027.3 hPa Calm     96 % 0.3 mm 102.0 W/m2 BKN
12:32 0.4 °C -0.1 °C 1027.3 hPa Calm     96 % 0.3 mm 102.0 W/m2 BKN
12:37 0.4 °C -0.1 °C 1027.3 hPa Calm     96 % 0.3 mm 97.0 W/m2 BKN
12:42 0.5 °C -0.1 °C 1027.0 hPa Calm     96 % 0.3 mm 97.0 W/m2 BKN
12:47 0.6 °C 0.0 °C 1027.0 hPa Calm     96 % 0.3 mm 100.0 W/m2 BKN
12:52 0.6 °C 0.1 °C 1027.0 hPa Calm     96 % 0.0 mm 97.0 W/m2 BKN
12:57 0.7 °C 0.2 °C 1027.0 hPa Calm     96 % 0.0 mm 116.0 W/m2 BKN
13:02 0.8 °C 0.3 °C 1027.0 hPa Calm     96 % 0.0 mm 102.0 W/m2 BKN
13:07 0.9 °C 0.4 °C 1027.0 hPa Calm     96 % 0.0 mm 84.0 W/m2 BKN
13:12 1.0 °C 0.4 °C 1027.0 hPa Calm     96 % 0.0 mm 81.0 W/m2 BKN
13:17 0.9 °C 0.4 °C 1027.0 hPa Calm     96 % 0.0 mm 81.0 W/m2 BKN
13:22 0.9 °C 0.3 °C 1026.6 hPa Calm     96 % 0.0 mm 93.0 W/m2 BKN
13:27 0.8 °C 0.3 °C 1026.6 hPa Calm     96 % 0.0 mm 86.0 W/m2 BKN
13:32 0.8 °C 0.3 °C 1026.6 hPa Calm     96 % 0.0 mm 86.0 W/m2 BKN
13:37 0.8 °C 0.3 °C 1026.6 hPa Calm     96 % 0.0 mm 91.0 W/m2 BKN
13:42 0.9 °C 0.3 °C 1026.3 hPa Calm     96 % 0.0 mm 95.0 W/m2 BKN
13:47 0.8 °C 0.3 °C 1026.6 hPa Calm     96 % 0.0 mm 95.0 W/m2 BKN
13:52 0.8 °C 0.2 °C 1026.3 hPa Calm     96 % 0.0 mm 93.0 W/m2 BKN
13:57 0.8 °C 0.2 °C 1026.3 hPa Calm     96 % 0.0 mm 144.0 W/m2 BKN
14:02 0.8 °C 0.3 °C 1026.3 hPa Calm     96 % 0.0 mm 86.0 W/m2 BKN
14:07 0.8 °C 0.3 °C 1026.3 hPa Calm     96 % 0.0 mm 76.0 W/m2 BKN
14:12 0.8 °C 0.2 °C 1026.3 hPa Calm     96 % 0.0 mm 63.0 W/m2 BKN
14:17 0.8 °C 0.2 °C 1026.3 hPa Calm     96 % 0.0 mm 58.0 W/m2 BKN
14:22 0.8 °C 0.3 °C 1026.0 hPa Calm     96 % 0.0 mm 67.0 W/m2 BKN
14:27 0.9 °C 0.3 °C 1026.3 hPa Calm     96 % 0.0 mm 62.0 W/m2 BKN
14:32 0.9 °C 0.3 °C 1026.3 hPa Calm     96 % 0.0 mm 65.0 W/m2 BKN
14:37 0.9 °C 0.3 °C 1026.3 hPa Calm     96 % 0.0 mm 67.0 W/m2 BKN
14:42 0.8 °C 0.2 °C 1026.0 hPa Calm     96 % 0.0 mm 67.0 W/m2 BKN
14:47 0.8 °C 0.3 °C 1026.0 hPa Calm     96 % 0.0 mm 72.0 W/m2 BKN
14:52 0.9 °C 0.4 °C 1026.0 hPa Calm     96 % 0.0 mm 97.0 W/m2 BKN
14:57 0.8 °C 0.3 °C 1026.0 hPa Calm     96 % 0.0 mm 93.0 W/m2 BKN
15:02 0.7 °C 0.2 °C 1026.0 hPa Calm     96 % 0.0 mm 86.0 W/m2 BKN
15:07 0.8 °C 0.2 °C 1026.0 hPa Calm     96 % 0.0 mm 74.0 W/m2 BKN
15:12 0.8 °C 0.3 °C 1026.0 hPa Calm     96 % 0.0 mm 74.0 W/m2 BKN
15:17 0.9 °C 0.3 °C 1026.0 hPa Calm     96 % 0.0 mm 76.0 W/m2 BKN
15:22 1.0 °C 0.4 °C 1025.6 hPa Calm     96 % 0.0 mm 109.0 W/m2 BKN
15:27 1.0 °C 0.4 °C 1025.6 hPa Calm     96 % 0.0 mm 107.0 W/m2 BKN
15:32 1.0 °C 0.4 °C 1025.6 hPa Calm     96 % 0.0 mm 86.0 W/m2 BKN
15:37 1.1 °C 0.5 °C 1025.6 hPa Calm     96 % 0.0 mm 102.0 W/m2 BKN
15:43 1.1 °C 0.5 °C 1025.6 hPa Calm     96 % 0.0 mm 56.0 W/m2 BKN
15:48 1.1 °C 0.5 °C 1025.6 hPa Calm     96 % 0.0 mm 44.0 W/m2 BKN
15:53 1.0 °C 0.4 °C 1025.6 hPa Calm     96 % 0.0 mm 39.0 W/m2 BKN
15:58 1.0 °C 0.4 °C 1025.6 hPa Calm     96 % 0.0 mm 37.0 W/m2 BKN
16:03 1.1 °C 0.5 °C 1025.6 hPa Calm     96 % 0.0 mm 46.0 W/m2 BKN
16:08 1.1 °C 0.5 °C 1025.6 hPa Calm     96 % 0.0 mm 53.0 W/m2 BKN
16:13 1.0 °C 0.4 °C 1025.6 hPa Calm     96 % 0.0 mm 62.0 W/m2 BKN
16:18 1.0 °C 0.4 °C 1025.6 hPa Calm     96 % 0.0 mm 49.0 W/m2 BKN
16:23 1.0 °C 0.4 °C 1025.6 hPa Calm     96 % 0.0 mm 39.0 W/m2 BKN
16:28 1.0 °C 0.4 °C 1025.6 hPa Calm     96 % 0.0 mm 32.0 W/m2 BKN
16:33 1.0 °C 0.4 °C 1025.6 hPa Calm     96 % 0.0 mm 28.0 W/m2 BKN
16:38 1.0 °C 0.4 °C 1025.6 hPa Calm     96 % 0.0 mm 28.0 W/m2 BKN
16:43 1.1 °C 0.5 °C 1025.6 hPa Calm     96 % 0.0 mm 30.0 W/m2 SCT
16:48 1.1 °C 0.5 °C 1025.6 hPa Calm     96 % 0.0 mm 26.0 W/m2 CLR
16:53 1.0 °C 0.4 °C 1025.6 hPa Calm     96 % 0.0 mm 23.0 W/m2 CLR
16:58 1.0 °C 0.4 °C 1025.6 hPa Calm     96 % 0.0 mm 21.0 W/m2 OVC
17:03 1.1 °C 0.5 °C 1025.6 hPa Calm     96 % 0.0 mm 18.0 W/m2 OVC
17:08 1.1 °C 0.6 °C 1025.6 hPa Calm     96 % 0.0 mm 12.0 W/m2 OVC
17:13 1.1 °C 0.5 °C 1026.0 hPa Calm     96 % 0.0 mm 12.0 W/m2 OVC
17:18 1.0 °C 0.4 °C 1025.6 hPa Calm     96 % 0.0 mm 9.0 W/m2 OVC
17:23 0.9 °C 0.2 °C 1025.6 hPa Calm     95 % 0.0 mm 7.0 W/m2 OVC
17:28 1.0 °C 0.4 °C 1025.6 hPa Calm     96 % 0.0 mm 5.0 W/m2 OVC
17:33 0.9 °C 0.4 °C 1025.6 hPa Calm     96 % 0.0 mm 0.0 W/m2 OVC
17:38 0.9 °C 0.2 °C 1025.6 hPa Calm     95 % 0.0 mm 0.0 W/m2 OVC
17:43 0.9 °C 0.2 °C 1025.6 hPa Calm     95 % 0.0 mm 0.0 W/m2 OVC
17:48 0.9 °C 0.2 °C 1025.6 hPa Calm     95 % 0.0 mm 0.0 W/m2 CLR
17:53 0.9 °C 0.2 °C 1025.6 hPa Calm     95 % 0.0 mm 0.0 W/m2 CLR
17:58 0.9 °C 0.2 °C 1025.6 hPa Calm     95 % 0.0 mm 0.0 W/m2 CLR
18:03 0.9 °C 0.2 °C 1025.6 hPa Calm     95 % 0.0 mm 0.0 W/m2 CLR
18:08 0.9 °C 0.2 °C 1025.6 hPa Calm     95 % 0.0 mm 0.0 W/m2 CLR
18:13 0.9 °C 0.2 °C 1025.6 hPa Calm     95 % 0.0 mm 0.0 W/m2 CLR
18:18 0.9 °C 0.2 °C 1025.6 hPa Calm     95 % 0.0 mm 0.0 W/m2 CLR
18:23 0.9 °C 0.2 °C 1025.6 hPa Calm     95 % 0.0 mm 0.0 W/m2 CLR
18:28 0.9 °C 0.2 °C 1025.6 hPa Calm     95 % 0.0 mm 0.0 W/m2 CLR
18:33 0.9 °C 0.2 °C 1025.6 hPa Calm     95 % 0.0 mm 0.0 W/m2 CLR
18:38 0.9 °C 0.2 °C 1026.0 hPa Calm     95 % 0.0 mm 0.0 W/m2 CLR
18:43 0.8 °C 0.1 °C 1026.0 hPa Calm     95 % 0.0 mm 0.0 W/m2 CLR
18:48 0.8 °C 0.1 °C 1026.0 hPa Calm     95 % 0.0 mm 0.0 W/m2 CLR
18:53 0.8 °C 0.1 °C 1026.0 hPa Calm     95 % 0.0 mm 0.0 W/m2 CLR
18:58 0.8 °C 0.1 °C 1026.0 hPa Calm     95 % 0.0 mm 0.0 W/m2 CLR
19:03 0.8 °C 0.1 °C 1026.0 hPa Calm     95 % 0.0 mm 0.0 W/m2 CLR
19:08 0.7 °C 0.0 °C 1026.0 hPa Calm     95 % 0.0 mm 0.0 W/m2 CLR
19:13 0.7 °C -0.1 °C 1026.0 hPa Calm     95 % 0.0 mm 0.0 W/m2 CLR
19:18 0.6 °C -0.1 °C 1026.0 hPa Calm     95 % 0.0 mm 0.0 W/m2 CLR
19:23 0.6 °C -0.2 °C 1026.0 hPa Calm     95 % 0.0 mm 0.0 W/m2 CLR
19:28 0.5 °C -0.2 °C 1026.3 hPa Calm     95 % 0.0 mm 0.0 W/m2 CLR
19:33 0.4 °C -0.3 °C 1026.3 hPa Calm     95 % 0.0 mm 0.0 W/m2 CLR
19:38 0.4 °C -0.3 °C 1026.3 hPa Calm     95 % 0.0 mm 0.0 W/m2 CLR
19:43 0.4 °C -0.3 °C 1026.3 hPa Calm     95 % 0.0 mm 0.0 W/m2 CLR
19:48 0.4 °C -0.3 °C 1026.3 hPa Calm     95 % 0.0 mm 0.0 W/m2 CLR
19:53 0.3 °C -0.4 °C 1026.3 hPa Calm     95 % 0.0 mm 0.0 W/m2 CLR
19:58 0.3 °C -0.4 °C 1026.3 hPa Calm     95 % 0.0 mm 0.0 W/m2 CLR
20:03 0.3 °C -0.4 °C 1026.6 hPa Calm     95 % 0.0 mm 0.0 W/m2 CLR
20:08 0.2 °C -0.5 °C 1026.3 hPa Calm     95 % 0.0 mm 0.0 W/m2 CLR
20:18 0.1 °C -0.6 °C 1026.3 hPa Calm     95 % 0.0 mm 0.0 W/m2 CLR
20:23 0.1 °C -0.7 °C 1026.3 hPa Calm     95 % 0.0 mm 0.0 W/m2 CLR
20:28 0.1 °C -0.7 °C 1026.3 hPa Calm     95 % 0.0 mm 0.0 W/m2 CLR
20:33 0.1 °C -0.7 °C 1026.3 hPa Calm     95 % 0.0 mm 0.0 W/m2 CLR
20:38 0.1 °C -0.7 °C 1026.3 hPa Calm     95 % 0.0 mm 0.0 W/m2 CLR
20:43 0.0 °C -0.7 °C 1026.3 hPa Calm     95 % 0.0 mm 0.0 W/m2 CLR
20:48 0.0 °C -0.7 °C 1026.6 hPa Calm     95 % 0.0 mm 0.0 W/m2 CLR
20:53 0.0 °C -0.7 °C 1026.6 hPa Calm     95 % 0.0 mm 0.0 W/m2 CLR
20:58 0.0 °C -0.7 °C 1026.6 hPa Calm     95 % 0.0 mm 0.0 W/m2 CLR
21:03 0.0 °C -0.7 °C 1026.6 hPa Calm     95 % 0.0 mm 0.0 W/m2 CLR
21:08 0.0 °C -0.7 °C 1026.6 hPa Calm     95 % 0.0 mm 0.0 W/m2 CLR
21:13 -0.1 °C -0.8 °C 1026.6 hPa Calm     95 % 0.0 mm 0.0 W/m2 CLR
21:18 0.0 °C -0.7 °C 1026.6 hPa Calm     95 % 0.0 mm 0.0 W/m2 CLR
21:23 0.0 °C -0.7 °C 1026.6 hPa Calm     95 % 0.0 mm 0.0 W/m2 CLR
21:28 0.0 °C -0.7 °C 1026.6 hPa Calm     95 % 0.0 mm 0.0 W/m2 CLR
21:33 0.0 °C -0.7 °C 1026.6 hPa Calm     95 % 0.0 mm 0.0 W/m2 CLR
21:38 0.1 °C -0.7 °C 1026.6 hPa Calm     95 % 0.0 mm 0.0 W/m2 CLR
21:43 0.0 °C -0.7 °C 1026.6 hPa Calm     95 % 0.0 mm 0.0 W/m2 CLR
21:48 0.0 °C -0.7 °C 1026.6 hPa Calm     95 % 0.0 mm 0.0 W/m2 CLR
21:54 0.0 °C -0.7 °C 1026.6 hPa Calm     95 % 0.0 mm 0.0 W/m2 CLR
21:59 -0.1 °C -0.8 °C 1026.6 hPa Calm     95 % 0.0 mm 0.0 W/m2 CLR
22:04 -0.1 °C -0.8 °C 1026.6 hPa Calm     95 % 0.0 mm 0.0 W/m2 CLR
22:09 -0.1 °C -0.8 °C 1026.6 hPa Calm     95 % 0.0 mm 0.0 W/m2 CLR
22:14 -0.1 °C -0.8 °C 1027.0 hPa Calm     95 % 0.0 mm 0.0 W/m2 CLR
22:19 -0.1 °C -0.8 °C 1026.6 hPa Calm     95 % 0.0 mm 0.0 W/m2 CLR
22:24 0.0 °C -0.7 °C 1026.6 hPa Calm     95 % 0.0 mm 0.0 W/m2 CLR
22:29 0.0 °C -0.7 °C 1026.6 hPa Calm     95 % 0.0 mm 0.0 W/m2 CLR
22:34 0.0 °C -0.7 °C 1026.6 hPa Calm     95 % 0.0 mm 0.0 W/m2 CLR
22:39 0.0 °C -0.7 °C 1026.6 hPa Calm     95 % 0.0 mm 0.0 W/m2 CLR
22:44 0.0 °C -0.7 °C 1026.6 hPa Calm     95 % 0.0 mm 0.0 W/m2 CLR
22:49 0.0 °C -0.7 °C 1026.6 hPa Calm     95 % 0.0 mm 0.0 W/m2 CLR
22:54 0.0 °C -0.7 °C 1026.6 hPa Calm     95 % 0.0 mm 0.0 W/m2 CLR
22:59 0.0 °C -0.7 °C 1026.6 hPa Calm     95 % 0.0 mm 0.0 W/m2 CLR
23:04 0.1 °C -0.7 °C 1026.6 hPa Calm     95 % 0.0 mm 0.0 W/m2 CLR
23:09 0.1 °C -0.7 °C 1026.6 hPa Calm     95 % 0.0 mm 0.0 W/m2 CLR
23:14 0.1 °C -0.7 °C 1026.6 hPa Calm     95 % 0.0 mm 0.0 W/m2 CLR
23:19 0.1 °C -0.7 °C 1026.6 hPa Calm     95 % 0.0 mm 0.0 W/m2 CLR
23:24 0.1 °C -0.7 °C 1026.6 hPa Calm     95 % 0.0 mm 0.0 W/m2 CLR
23:29 0.1 °C -0.7 °C 1026.6 hPa Calm     95 % 0.0 mm 0.0 W/m2 CLR
23:34 0.1 °C -0.7 °C 1026.6 hPa Calm     95 % 0.0 mm 0.0 W/m2 CLR
23:39 0.1 °C -0.7 °C 1026.6 hPa Calm     95 % 0.0 mm 0.0 W/m2 CLR
23:44 0.1 °C -0.7 °C 1026.6 hPa Calm     95 % 0.0 mm 0.0 W/m2 CLR
23:49 0.1 °C -0.7 °C 1026.6 hPa Calm     95 % 0.0 mm 0.0 W/m2 CLR
23:54 0.1 °C -0.7 °C 1026.6 hPa Calm     95 % 0.0 mm 0.0 W/m2 CLR
23:59 0.0 °C -0.7 °C 1026.6 hPa Calm     95 % 0.0 mm 0.0 W/m2 CLR
Lo Temps de Massalio
Compliments of Weather Underground - 1.25 mb